EXPRESS-A4

Last updated on Jan. 18, 2020, 4:38 a.m. UTC

1 27441U 02029A   20017.47221228 -.00000332  00000-0  00000+0 0  9997
2 27441   7.5994  51.0300 0014489  73.5938 300.7509  1.00033470 64488
UTC
Height (km)
Latitude
Longitude
Inclination
Orbital Period
UTC large
Height (km)
Speed (km/s)
/
Latitude / Longitude
Inclination (degrees)
Orbital Period (minutes)
Azimuth
Elevation
Range (km)
Doppler Factor
iOS Compass Heading
iOS Angle

Next 30 passes for location: Hong Kong

Rise time Rise Azimuth (degrees) Set time Set Azimuth (degrees) Duration Max altitude (degrees)

No matching passes for this satellites